Retour au catalogue

CZ-6A R/B

ActifLEO
NORAD 100177·ROCKET BODY·🇨🇳 China

Lancé Jul 30, 2026 depuis Taiyuan Satellite Launch Center

Loading…

Prochains Passages (prochaines 24 heures)

TLE

FraisSource: Space-Track

Époque: Sep 14, 2026, 23:48 UTC

1 A0177U 26173D   26257.99219416 -.00000141  00000-0 -79271-4 0  9995
2 A0177  64.7965 159.1423 0097366  96.9131 264.3001 13.56154409  6368

Suivez CZ-6A R/B en temps réel avec AllMySat

Download on the App Store